Theta_e
305 305 305 306 306 307 309 310 311 311 312 312 312 312 312 312 311 311 311 310 310 309 309 309 309 310 309 309 309 309 309 309 310 311 310 311 311 312 316 321 324 321 316 318 320 318 317 314 317 321 322 335 347 351 352 352 353 352 355 358 357 360 362 361 362 361 360 358 356 356 357 356 355 356 352 351 353 351 352 352 350 350 348 348 348 346 346 347
305 305 305 306 306 307 308 310 311 311 311 312 312 312 312 311 311 311 311 311 310 310 309 310 309 310 309 309 309 309 310 313 318 319 315 313 312 312 316 321 325 323 319 316 317 317 317 315 318 325 328 337 344 348 351 351 352 352 355 358 358 362 362 357 358 357 357 357 357 357 357 355 356 355 352 353 354 351 352 351 350 350 349 349 349 346 347 349
305 305 305 305 306 306 308 310 311 311 311 312 312 311 311 311 311 311 311 312 311 310 310 309 309 309 309 309 310 308 313 324 328 324 320 317 312 312 317 321 324 323 321 318 317 317 317 315 319 329 333 337 341 343 346 348 351 352 353 359 360 358 358 355 354 356 356 357 357 357 357 356 355 353 353 355 354 352 352 350 350 350 351 350 349 348 350 351
305 305 305 305 306 306 307 309 310 311 311 312 312 312 311 310 311 311 312 312 311 311 310 309 309 309 309 309 310 309 316 331 331 323 321 319 316 313 316 321 322 323 320 320 319 317 317 316 322 331 335 334 336 338 340 343 348 350 351 356 356 352 357 357 353 355 355 355 356 356 357 356 355 353 354 356 354 354 352 350 350 350 350 350 349 350 351 351
305 305 305 305 305 306 306 308 310 311 311 311 312 312 311 310 311 311 312 311 310 310 309 309 309 309 309 309 310 309 318 332 329 323 322 320 320 317 316 319 321 321 319 318 319 318 319 322 327 333 334 334 335 338 340 341 343 346 348 349 349 350 357 358 352 355 356 354 354 355 357 356 354 354 355 354 354 354 352 351 350 349 350 349 350 351 351 351
307 306 305 305 305 306 306 307 309 311 311 311 312 312 312 311 311 311 311 310 309 308 309 309 309 309 309 309 311 313 320 329 327 323 323 321 321 319 318 319 320 322 318 316 316 319 326 329 331 333 334 334 336 340 342 343 343 343 343 343 343 345 354 356 352 354 356 355 354 355 356 354 353 354 354 354 353 352 351 351 350 349 349 349 351 351 351 351
308 307 306 305 305 306 306 307 308 310 311 311 311 312 312 312 311 311 311 310 309 308 308 309 309 308 308 310 312 316 322 325 324 322 321 321 321 319 319 319 319 321 319 317 317 323 329 329 329 331 333 335 337 339 341 342 343 342 341 340 340 341 349 354 352 354 355 354 354 355 355 354 355 356 354 354 353 351 351 352 350 350 350 350 351 350 351 351
308 308 307 306 305 305 306 307 308 310 311 311 311 312 312 312 311 312 311 310 308 308 308 308 308 308 309 311 315 320 323 323 323 321 320 320 320 319 319 318 318 320 320 318 317 324 330 329 329 330 330 334 337 338 340 341 341 341 340 340 340 339 346 353 353 354 355 355 354 355 355 356 356 356 353 353 353 351 351 351 350 350 350 351 351 351 351 350
307 307 306 306 305 306 306 307 308 309 310 311 312 311 312 312 312 312 311 310 308 308 308 307 307 308 310 311 317 323 323 322 323 319 321 320 320 320 319 317 316 318 320 319 317 323 330 330 330 330 330 330 333 335 337 341 342 340 338 339 338 337 347 352 354 355 355 356 355 354 356 356 354 354 354 352 352 351 351 350 350 351 351 351 350 350 351 350
306 306 306 306 305 306 306 307 308 309 310 311 312 312 312 312 312 312 311 309 308 308 307 307 308 310 312 311 318 325 321 321 322 318 319 319 320 322 319 317 317 316 319 320 318 322 330 332 331 331 330 330 332 333 335 339 341 336 332 333 329 335 350 352 353 355 356 355 354 355 356 356 352 355 358 353 351 352 351 350 349 351 350 350 350 350 350 350
306 306 306 306 306 307 307 309 310 310 311 312 312 312 312 313 312 312 311 308 308 308 308 309 311 312 313 312 317 324 322 320 319 317 319 318 320 324 320 316 317 316 318 320 317 320 329 333 331 330 330 331 332 331 333 334 335 332 330 329 326 338 352 351 352 355 356 355 353 355 355 354 352 356 359 353 351 352 351 350 349 350 349 349 349 349 350 349
309 309 309 309 309 309 310 311 311 312 312 313 313 312 313 312 313 312 310 309 308 308 309 313 314 315 316 314 315 320 321 320 317 318 319 318 320 324 323 320 319 317 318 320 317 319 328 331 330 331 330 331 330 330 332 331 331 330 330 328 329 345 354 350 352 354 355 355 353 354 355 355 354 355 355 351 352 352 351 349 349 349 349 349 348 349 349 349
312 312 312 312 312 312 313 313 313 313 314 314 313 313 313 312 313 312 309 309 309 309 313 317 318 319 322 320 317 320 321 319 318 318 318 318 319 322 324 325 324 320 319 320 317 319 326 331 330 329 330 328 327 329 330 330 330 330 330 326 328 347 355 351 352 354 355 354 352 354 359 360 355 353 352 351 352 352 350 349 348 349 348 348 348 348 349 349
312 313 313 313 314 313 314 314 314 314 314 314 314 313 313 313 313 311 310 311 310 311 315 319 320 322 323 322 319 320 320 319 319 318 318 318 319 320 323 326 326 324 321 320 319 318 325 330 330 327 326 326 327 329 329 329 329 330 329 327 327 335 344 350 351 353 356 355 352 353 361 363 355 352 352 352 353 351 350 349 348 348 348 348 347 347 348 348
312 313 313 314 314 314 315 315 315 315 314 314 314 314 314 313 313 311 311 312 311 312 313 317 321 323 324 323 320 321 318 319 319 318 318 318 318 320 322 325 327 325 321 320 319 318 322 326 325 324 325 327 329 329 330 332 332 332 327 329 331 323 331 351 351 353 356 354 352 350 357 360 353 352 352 352 353 351 349 349 348 349 348 348 347 346 347 347
312 313 314 315 315 315 315 315 315 314 314 315 315 315 315 315 314 313 314 314 313 313 312 316 321 323 326 326 322 322 321 319 319 317 319 318 317 319 320 324 327 325 321 319 318 319 322 324 324 324 326 330 333 331 333 333 334 337 328 326 330 320 332 354 352 352 356 353 353 350 356 362 356 352 351 352 351 351 350 349 348 348 348 348 347 346 345 346
313 314 314 315 315 315 315 315 315 314 315 316 316 315 316 315 316 317 317 317 316 315 315 317 320 322 326 325 322 322 321 319 317 317 318 318 317 316 318 322 326 327 322 319 319 321 324 325 327 331 331 331 333 332 333 331 331 336 331 326 327 323 332 347 350 354 353 353 355 351 356 360 356 352 351 351 351 350 350 349 349 348 347 348 348 347 346 346
314 314 315 315 315 315 315 315 314 315 316 316 316 315 315 316 317 318 317 317 317 319 321 322 323 323 322 321 320 319 318 318 316 316 317 317 316 316 316 319 324 326 324 322 323 324 326 327 329 335 334 330 330 332 332 332 331 331 329 325 325 324 326 335 346 354 352 353 357 354 354 354 352 352 350 351 351 350 350 349 349 348 348 348 347 348 347 346
315 315 315 315 315 315 315 315 314 316 316 316 316 315 314 315 317 317 316 315 315 320 325 323 323 324 321 319 319 317 316 316 316 316 317 317 316 316 317 318 323 325 325 326 327 326 328 331 331 334 335 332 331 331 332 334 330 328 327 324 324 323 322 325 336 346 351 354 356 355 354 353 352 351 351 351 351 350 350 350 349 349 348 347 347 348 348 346
315 315 315 314 315 315 315 315 314 316 316 316 316 315 315 314 316 316 314 314 315 317 320 319 319 319 319 318 317 315 316 315 316 316 317 317 316 317 318 319 322 325 327 329 330 328 329 334 335 335 335 334 332 330 330 331 328 327 327 326 325 324 323 323 325 338 351 353 354 355 354 353 352 351 351 351 351 350 349 350 350 349 348 347 347 348 348 348
314 314 314 314 314 314 315 315 315 316 317 316 315 314 314 313 315 315 314 315 315 315 315 315 315 316 316 317 315 316 315 315 315 316 316 317 317 317 318 320 323 327 327 327 329 329 329 334 336 335 334 333 331 329 329 329 328 328 327 326 326 324 325 325 323 332 348 352 352 353 353 353 351 351 352 350 350 350 350 350 350 349 349 347 347 348 348 348
314 314 314 314 314 314 315 315 315 317 317 316 315 315 315 314 315 315 314 315 315 314 314 315 315 316 316 316 315 315 315 315 315 316 317 317 317 318 319 322 325 328 326 325 327 330 332 333 333 332 330 329 329 329 328 328 328 328 327 325 324 325 325 327 325 329 344 352 351 352 352 352 352 351 351 351 351 350 349 349 350 349 349 348 347 348 348 348
313 313 313 313 314 314 315 315 315 317 317 315 315 315 315 314 314 314 314 314 314 314 314 314 315 316 316 316 315 314 314 314 315 317 318 317 317 317 320 322 325 327 326 326 329 330 332 333 332 328 327 328 329 328 327 328 327 327 327 325 324 325 322 324 325 328 342 351 350 352 352 352 353 353 352 351 350 350 349 349 349 350 349 349 348 347 348 349
313 313 313 314 314 313 315 315 315 317 317 316 315 315 315 315 314 314 314 313 313 315 315 315 315 316 317 315 315 315 314 314 315 317 318 318 317 318 319 320 323 326 326 327 329 329 331 332 329 326 326 328 328 328 327 327 328 327 327 325 325 326 322 322 323 324 331 338 345 351 350 352 355 353 354 352 351 350 349 349 349 349 349 349 349 347 348 348
312 312 313 314 313 314 315 314 316 317 317 316 316 315 315 315 315 314 315 315 315 318 317 315 316 316 315 315 314 314 315 315 315 317 318 318 318 318 319 318 321 325 326 326 327 327 329 327 325 326 328 326 326 327 327 326 327 326 326 326 326 326 325 324 323 321 319 323 338 348 344 349 355 353 354 353 352 353 350 349 349 348 349 349 349 348 348 348
312 313 313 313 313 314 314 315 317 317 317 317 316 316 316 316 315 314 316 319 318 319 318 315 316 316 315 315 315 314 315 316 315 317 318 318 317 317 317 317 319 323 325 324 325 327 327 324 323 326 327 326 326 326 326 326 325 324 327 328 326 325 325 323 321 320 319 324 340 349 346 348 350 349 354 353 353 354 351 350 349 348 349 349 348 348 348 348
312 313 312 313 313 314 315 316 316 316 318 318 317 317 315 315 315 313 319 325 321 317 316 314 314 314 314 314 314 315 316 316 316 317 318 317 317 316 316 318 317 318 320 321 321 324 323 322 324 324 324 325 325 325 325 326 324 324 327 326 325 324 322 322 321 319 322 331 347 353 351 352 348 347 352 354 354 355 354 353 350 349 350 349 349 348 348 348
313 312 312 313 314 314 315 316 316 316 317 317 317 316 314 315 315 314 322 325 320 316 314 313 313 313 314 314 314 315 315 315 315 317 317 317 317 317 317 319 318 318 318 318 320 321 320 320 323 324 322 323 325 326 326 325 324 326 326 325 324 323 323 324 321 321 325 331 340 347 347 349 349 350 352 353 354 354 355 353 351 350 349 349 350 349 349 349
313 313 313 314 314 314 315 316 317 316 316 317 316 315 315 315 315 318 324 322 316 314 314 313 314 314 314 314 314 314 314 315 315 316 317 317 317 316 317 317 317 317 316 316 319 319 317 318 321 321 321 323 325 326 325 324 326 325 324 324 324 324 325 326 323 321 321 321 326 336 340 341 344 348 351 352 352 352 353 352 350 350 349 350 350 349 349 349
314 314 314 314 314 314 315 317 317 316 316 315 315 315 316 316 321 326 323 318 315 314 313 314 314 313 314 315 315 314 314 315 314 316 316 316 316 315 317 316 315 317 318 317 319 318 316 316 318 318 320 321 322 323 322 323 325 323 324 323 323 326 326 331 336 328 318 319 325 330 335 339 339 340 347 350 350 351 352 351 350 350 350 350 350 350 350 349
315 314 314 315 314 314 315 316 316 315 315 314 315 316 316 319 327 330 321 315 315 314 314 315 315 315 314 315 316 314 314 314 313 316 316 315 315 313 315 316 316 321 325 322 320 318 318 318 318 317 317 316 319 321 319 319 321 321 326 324 322 328 327 328 335 325 315 324 334 331 331 336 336 337 343 348 348 349 350 350 350 350 351 350 350 351 350 349
316 315 315 315 315 315 315 315 314 315 315 315 315 316 321 324 324 323 319 315 315 313 314 315 315 315 314 315 316 314 314 313 313 315 315 314 314 312 314 313 314 319 321 319 318 319 319 318 316 315 316 314 316 319 316 318 321 319 325 325 321 326 324 322 327 323 319 326 330 325 325 330 334 335 339 345 347 346 347 348 348 349 350 351 350 350 351 350
317 318 318 317 316 316 315 315 315 315 316 316 316 318 326 327 320 317 317 314 313 313 314 314 314 315 315 316 315 313 313 313 313 315 314 314 313 313 313 311 311 315 317 316 316 317 319 318 316 315 315 315 314 315 314 317 321 318 323 325 321 323 321 321 327 324 321 323 323 321 321 323 325 328 333 340 343 345 346 346 347 348 350 351 351 352 351 351
318 318 318 317 316 316 315 316 316 316 317 316 317 320 322 320 318 319 316 313 313 314 313 313 314 315 315 315 314 314 314 313 313 313 313 313 313 313 312 312 311 312 316 317 316 316 317 317 316 314 314 314 315 314 313 314 315 317 322 323 324 326 324 324 326 322 321 323 321 318 319 321 320 325 332 330 332 341 344 345 347 346 348 350 351 352 351 351
319 317 316 316 315 315 315 317 316 317 317 314 316 319 317 315 316 317 315 314 314 314 313 313 313 314 314 313 313 313 314 314 313 312 312 312 312 312 312 311 311 311 314 317 316 315 316 316 315 314 313 314 315 314 314 315 316 319 323 321 321 323 322 323 326 327 325 322 321 320 321 326 325 326 330 325 324 332 338 343 346 344 347 350 351 352 351 352
318 316 316 315 316 316 316 317 316 316 316 314 314 314 314 313 313 313 314 314 313 312 314 314 312 313 314 313 313 312 313 314 313 313 313 312 311 311 311 311 311 311 313 315 315 314 316 318 315 314 315 314 313 314 314 315 318 320 321 319 318 317 318 321 325 329 325 319 323 324 321 327 328 324 327 330 332 333 335 341 344 344 347 348 351 352 351 351
318 316 316 316 316 316 316 317 317 316 315 314 315 315 313 312 311 312 313 312 312 312 313 314 312 312 313 312 312 312 313 313 313 313 313 312 312 310 310 311 311 311 312 313 314 312 313 317 315 313 316 315 312 315 315 313 315 318 317 317 318 320 322 323 322 325 324 320 326 325 318 324 327 323 327 332 335 338 339 339 339 341 345 348 350 351 351 352
318 317 316 315 316 315 316 316 316 316 315 316 320 318 314 313 311 311 311 311 312 311 312 313 312 312 312 312 311 311 313 313 313 314 313 312 313 311 310 311 312 311 311 312 315 314 312 316 316 313 314 315 314 315 316 314 313 315 316 316 320 322 325 325 321 321 322 322 325 324 322 325 325 325 328 328 331 338 342 341 339 339 341 346 349 351 350 352
318 317 316 315 316 315 316 316 316 315 315 316 321 319 314 313 312 311 311 311 311 312 312 312 312 312 311 312 311 311 312 312 311 313 314 313 312 312 310 311 311 311 311 312 313 315 315 316 317 315 314 314 315 315 315 314 314 315 315 314 318 321 321 321 321 322 322 323 325 325 324 327 329 328 325 324 330 339 342 344 343 341 341 342 346 350 350 351
317 317 316 316 317 316 315 316 315 316 317 316 317 316 313 313 311 311 312 311 311 312 311 311 312 312 311 311 311 311 311 311 311 312 313 312 312 312 310 310 311 311 311 311 311 314 318 317 316 316 314 314 316 315 313 314 314 315 314 312 313 317 318 320 322 321 320 324 328 327 325 328 331 327 322 322 331 340 342 341 341 343 345 343 341 348 350 350
317 318 317 316 317 316 316 317 316 317 317 315 313 314 314 313 312 311 312 312 312 312 311 311 312 312 311 311 311 311 311 312 312 312 312 311 311 313 311 310 311 312 312 314 313 313 316 317 317 317 314 313 315 314 312 314 314 313 313 312 312 313 317 323 326 322 320 322 324 323 323 328 331 323 319 324 334 341 341 338 338 343 347 346 340 343 349 349
316 317 316 315 316 316 315 317 317 316 315 314 312 313 314 313 311 310 311 312 312 311 312 312 312 312 312 311 311 312 313 312 312 312 311 311 311 312 311 311 312 312 313 315 313 313 316 316 315 315 314 312 312 312 311 313 314 312 311 311 311 312 313 317 321 321 320 321 324 324 324 328 330 321 317 326 338 341 340 338 338 340 345 348 342 339 347 349
317 317 315 314 315 315 314 316 317 316 314 312 310 311 312 311 310 311 311 312 312 312 312 312 313 313 312 311 312 313 313 313 312 312 312 312 313 311 311 314 313 312 314 314 312 313 316 315 313 314 317 314 312 314 313 311 311 311 311 310 310 312 312 312 314 317 321 321 322 327 330 331 330 321 317 329 339 340 339 340 339 337 340 346 347 341 344 348
316 316 315 315 315 315 314 316 317 317 314 312 311 311 311 310 310 311 311 311 312 312 312 312 312 313 312 311 313 313 313 315 314 313 313 314 313 312 312 314 314 314 315 315 313 313 313 316 317 316 317 317 316 317 317 313 310 310 310 310 310 311 311 312 315 320 325 323 317 323 332 332 325 317 319 333 338 337 339 339 338 337 336 340 347 349 347 347
317 318 316 314 314 314 314 314 315 316 315 313 312 312 312 311 311 311 311 311 311 311 312 313 312 312 312 312 312 312 313 316 315 314 316 316 314 312 312 313 314 314 315 314 314 313 313 317 321 318 314 314 314 316 316 314 311 310 310 310 311 311 310 313 315 318 325 325 316 319 326 325 318 315 322 335 337 336 338 338 335 335 334 335 340 345 348 350
318 321 319 317 315 313 313 313 313 315 317 317 315 312 312 313 312 311 311 311 311 311 312 312 311 312 314 314 314 314 314 315 316 316 317 316 314 313 312 314 313 312 314 314 312 315 318 319 322 323 320 318 318 318 317 314 311 311 311 310 310 311 311 313 315 316 320 319 318 323 325 321 316 314 323 336 336 334 337 338 335 334 333 333 335 338 342 346
319 320 320 320 318 315 315 314 312 314 316 316 316 313 311 312 312 312 312 311 311 311 311 311 312 313 314 315 315 316 316 316 316 317 316 314 314 313 311 312 313 311 313 312 310 318 322 317 317 321 321 318 318 318 315 312 311 310 310 310 310 311 312 312 313 316 316 315 319 328 327 319 314 315 326 335 334 332 336 337 336 333 332 332 333 334 337 339
319 318 317 318 318 317 317 315 313 314 314 315 316 314 312 313 313 313 312 311 311 312 313 313 313 314 314 315 316 316 318 318 316 315 315 314 315 315 312 312 312 311 312 311 311 316 319 316 312 314 314 313 313 312 311 311 311 310 310 311 310 311 312 311 312 314 314 314 317 322 322 318 315 319 331 334 331 332 335 336 335 333 331 330 330 332 334 335
317 318 317 317 316 315 315 313 312 313 315 318 319 315 313 314 314 313 312 313 312 312 313 314 314 314 316 318 320 317 317 318 316 314 314 314 314 315 314 314 313 310 311 313 311 312 317 319 316 312 313 314 312 312 311 311 311 311 311 311 310 311 311 311 312 312 313 315 316 316 318 318 318 325 333 332 330 332 333 333 332 331 330 330 330 331 332 333
318 318 316 316 315 314 313 313 313 314 316 318 318 315 314 314 315 313 312 313 313 313 313 313 313 314 315 319 320 317 316 316 315 314 314 314 314 314 313 314 313 312 313 314 312 311 314 318 318 316 316 315 313 312 312 312 311 311 311 311 311 311 311 311 311 313 315 318 318 317 319 320 322 329 333 330 329 330 330 330 330 329 329 329 329 330 330 331
318 318 316 318 319 316 313 312 313 316 318 317 316 315 316 315 314 313 312 311 312 313 313 314 314 314 315 317 317 314 314 314 313 313 312 312 312 312 312 313 311 312 315 315 314 314 315 316 319 319 317 315 314 312 312 312 310 310 311 312 312 311 311 312 311 312 318 324 325 322 321 323 326 329 330 329 329 329 328 329 328 328 328 328 329 329 329 330
318 318 316 317 318 315 313 313 314 316 315 314 315 315 315 313 312 313 315 313 311 313 313 312 312 314 316 316 314 313 313 312 312 312 311 311 311 310 311 312 310 310 315 316 315 317 319 318 317 317 317 317 314 313 313 312 310 312 315 312 311 312 311 311 313 317 324 329 329 326 325 327 327 327 327 328 328 328 328 328 327 327 326 327 328 328 328 328
Wind_Speed
15 16 16 16 17 17 18 18 18 17 16 15 14 13 13 13 13 14 14 14 14 12 11 11 11 11 11 11 11 10 11 11 11 9 8 9 12 13 15 16 16 17 19 20 18 17 16 15 13 14 16 18 16 14 13 12 10 7 2 2 2 2 3 3 4 4 5 6 7 10 10 7 6 6 10 12 10 12 12 12 16 7 13 23 19 34 39 33
16 16 16 16 16 16 17 18 18 18 17 16 15 14 14 14 14 14 14 14 14 13 11 10 10 11 11 10 10 11 11 9 6 3 1 5 10 14 18 18 17 18 19 20 20 20 17 16 15 16 17 14 11 11 9 9 11 8 2 2 4 3 3 3 7 7 7 8 9 10 9 9 8 11 15 9 7 12 10 12 16 17 21 21 26 38 35 34
16 16 16 16 16 16 16 17 17 18 18 17 15 15 14 14 15 15 15 15 13 13 11 10 10 10 10 10 9 10 9 4 2 5 6 4 8 14 18 19 19 18 17 18 19 18 15 15 17 18 16 11 9 10 7 7 10 10 5 1 4 5 2 3 13 11 14 18 13 10 9 11 12 16 15 7 8 10 9 13 19 23 27 29 35 37 34 36
16 16 16 16 16 16 16 15 16 17 17 17 16 15 14 15 17 17 16 15 13 12 11 10 9 9 9 8 8 8 4 2 4 6 9 8 7 11 15 19 20 17 16 16 17 15 12 12 16 18 14 7 8 9 8 8 8 7 8 4 4 4 0 4 13 12 19 24 18 13 12 10 13 17 14 12 10 5 9 17 23 28 33 38 39 36 36 36
17 16 16 16 16 16 16 16 16 16 17 17 17 16 15 15 17 18 17 16 13 12 10 10 9 9 8 7 7 5 2 3 3 6 8 8 7 7 12 16 19 18 16 15 16 15 14 15 16 16 10 5 5 6 8 13 11 4 8 10 7 3 1 5 13 13 17 21 18 14 11 11 14 14 15 17 9 7 15 19 25 33 38 43 41 39 38 36
17 16 16 15 16 16 16 16 16 16 16 17 17 16 15 15 17 19 18 15 13 11 9 9 8 8 7 6 6 1 2 2 4 6 6 6 6 6 11 15 18 19 18 15 17 18 17 17 17 14 8 5 5 5 7 12 13 6 6 10 11 9 4 8 14 15 17 19 15 12 12 15 13 8 15 17 6 11 20 18 24 33 40 43 41 41 39 37
17 16 16 15 16 16 17 17 17 17 16 16 16 16 16 15 16 18 18 15 13 10 8 7 7 7 6 5 3 2 3 2 5 5 6 5 5 5 9 15 19 21 21 19 19 21 20 17 17 15 7 4 4 7 10 12 12 8 5 8 11 12 10 13 17 17 19 19 17 16 16 14 10 6 13 15 7 15 20 16 25 33 39 41 38 39 38 37
17 16 15 15 16 17 17 17 17 17 17 17 16 16 16 15 15 17 17 15 12 10 7 6 6 6 4 4 3 2 3 4 6 5 5 4 4 3 8 15 20 21 23 22 22 22 21 18 17 14 5 5 6 5 10 11 9 8 8 10 11 12 13 18 19 18 17 17 20 19 14 10 11 9 11 14 12 18 19 18 29 35 38 38 36 37 36 35
17 16 16 15 16 17 17 18 18 18 18 18 16 15 15 15 15 15 16 14 11 8 6 5 6 5 3 4 3 1 4 6 6 4 3 3 5 0 6 13 17 21 24 23 23 22 22 20 19 16 6 6 8 8 9 6 5 6 10 12 12 11 14 22 20 19 15 14 20 16 10 10 12 9 7 15 16 17 20 25 34 36 36 36 35 36 36 36
18 17 17 17 16 17 18 18 18 18 19 18 17 15 15 14 14 14 14 13 10 8 6 5 5 4 4 4 2 2 5 6 4 1 1 2 4 2 5 11 14 19 23 24 25 25 25 22 19 16 6 6 7 8 11 7 5 8 10 12 14 11 15 24 20 20 16 15 19 13 8 10 12 7 3 14 18 19 25 30 36 37 37 36 34 35 36 36
18 18 18 17 18 18 19 19 19 19 19 18 17 15 14 14 14 13 11 11 10 7 5 5 4 4 4 5 5 3 5 4 1 1 1 0 3 4 2 10 14 17 21 24 26 27 26 21 16 10 4 5 6 9 10 5 8 14 11 11 12 6 15 19 18 19 14 11 17 12 9 7 8 5 4 15 20 22 30 33 36 38 36 35 34 35 36 36
19 18 18 18 18 19 19 20 20 20 19 18 16 14 14 13 13 12 9 8 8 6 3 3 3 2 3 6 8 4 4 3 1 1 1 1 3 5 5 4 9 13 17 23 26 26 25 19 15 10 6 4 6 7 8 10 16 16 9 7 6 3 10 14 16 20 13 8 17 15 9 2 5 6 8 19 22 24 32 34 36 37 36 35 34 36 38 36
20 19 19 18 19 19 19 19 20 20 19 17 15 14 13 12 12 10 6 6 6 3 2 2 2 2 4 4 6 6 4 5 3 2 2 2 2 2 4 4 2 6 12 19 22 24 25 20 16 13 11 7 6 7 10 16 16 11 5 2 1 3 4 11 14 18 11 9 23 16 3 4 7 9 11 21 25 27 31 33 35 36 35 35 34 37 38 37
21 20 20 19 19 19 19 20 20 20 19 17 15 12 10 10 10 7 3 4 4 1 1 2 2 4 4 4 7 5 6 7 4 3 5 4 4 3 2 2 2 2 8 14 18 21 24 21 17 12 13 12 10 11 11 10 7 4 3 2 1 2 4 9 13 16 8 10 25 12 2 5 8 11 13 22 29 30 31 32 34 35 35 35 33 36 39 39
22 21 20 20 20 19 20 20 19 20 18 16 12 9 8 9 7 4 2 3 2 1 2 4 3 4 6 3 6 6 7 8 5 6 7 5 4 3 3 4 3 2 5 11 15 17 19 19 15 12 14 14 12 8 5 3 3 2 1 3 2 1 3 6 13 16 9 11 22 10 2 4 5 9 15 23 31 32 31 31 33 34 35 35 33 35 38 39
23 22 21 20 20 19 20 19 19 19 15 12 10 7 8 7 4 3 2 3 2 1 3 6 5 4 5 3 5 6 5 7 5 5 6 5 4 3 2 4 3 3 4 9 12 11 13 14 12 13 13 10 5 3 2 4 4 3 1 2 3 1 1 3 8 14 11 11 16 11 2 1 2 10 17 25 32 32 30 29 33 34 35 36 34 34 35 37
23 23 21 21 20 20 19 18 18 15 10 11 9 5 7 6 4 3 1 1 2 2 5 7 6 5 3 2 3 3 3 4 4 6 9 7 5 4 2 4 5 5 6 9 12 10 10 10 8 8 7 3 1 2 1 2 2 4 2 1 2 0 1 3 5 9 9 9 12 12 6 2 3 10 19 26 31 31 29 29 32 33 34 35 35 35 35 36
24 23 22 21 20 19 18 17 16 11 8 11 10 6 6 6 3 1 2 2 2 1 3 5 3 2 2 3 0 1 1 3 4 6 9 7 7 6 4 4 5 7 7 7 9 9 9 6 2 1 2 1 2 4 2 3 3 1 1 2 2 2 1 3 3 6 9 7 9 11 10 7 3 9 19 26 30 29 28 30 31 32 34 34 34 36 36 36
24 24 23 21 20 19 17 15 13 8 8 11 9 4 3 5 2 3 2 6 3 2 1 3 3 1 3 4 3 3 2 3 4 4 6 5 8 9 6 4 6 9 7 3 4 7 7 3 1 1 2 2 2 4 5 5 4 3 0 1 3 3 1 3 3 6 12 9 8 11 12 10 7 9 16 25 30 29 27 29 30 30 33 34 33 36 38 38
24 24 23 22 20 18 15 13 9 6 9 10 8 5 4 7 3 0 10 13 7 6 6 6 6 8 8 6 4 4 5 4 5 4 5 5 10 11 7 7 6 7 6 3 3 5 6 3 3 4 4 4 4 4 6 6 3 1 2 3 4 4 3 3 4 5 11 9 9 12 13 11 10 10 16 26 30 26 25 27 28 30 33 34 33 35 38 40
25 24 24 22 20 17 14 11 7 4 9 10 10 8 7 9 4 4 14 12 7 6 9 8 8 11 9 5 3 6 7 3 3 5 6 6 11 11 7 6 6 3 3 5 3 2 4 4 5 6 6 6 5 4 5 5 4 3 3 4 4 4 4 5 5 5 9 8 8 10 10 10 9 9 15 23 24 23 27 28 30 32 33 35 35 35 38 40
25 24 24 22 20 17 13 9 5 2 8 9 10 11 10 9 6 7 12 10 10 8 8 7 7 11 10 6 4 6 7 5 0 4 6 8 11 10 8 6 5 2 2 3 3 2 2 4 6 7 7 4 4 4 4 5 4 4 3 3 4 3 2 5 6 4 7 7 5 7 9 8 7 9 13 20 22 25 32 34 34 36 34 34 35 35 36 37
26 25 24 23 20 16 12 8 5 1 6 8 10 11 9 9 8 9 10 8 11 9 7 8 9 11 9 6 4 3 6 3 1 4 7 10 11 9 10 6 3 3 2 3 4 2 2 4 8 9 6 3 5 5 4 4 4 4 4 3 5 2 3 3 6 3 3 6 4 5 6 4 4 7 10 19 25 24 29 33 33 36 36 37 39 38 37 38
25 24 23 22 19 15 11 7 4 2 3 6 9 9 5 7 7 9 10 4 5 6 4 6 7 7 7 4 3 4 4 2 2 5 8 11 9 8 8 5 3 3 2 5 7 4 5 8 9 7 4 4 5 5 4 3 3 5 5 5 7 3 3 5 6 5 2 6 5 4 1 2 5 10 9 14 19 17 21 27 28 32 36 37 38 39 40 40
24 22 21 21 17 13 9 4 4 4 2 3 5 5 4 5 6 9 8 2 3 5 0 4 4 3 3 3 5 5 2 1 2 6 10 10 9 7 4 4 4 3 4 5 6 4 7 10 6 5 5 6 5 6 5 4 3 5 6 9 9 6 4 7 6 4 4 5 5 6 2 5 4 10 9 9 11 12 15 20 23 30 33 33 35 38 40 41
22 21 19 18 15 11 6 2 4 4 4 2 1 2 5 6 6 7 5 3 1 3 1 2 3 3 3 5 7 4 2 0 2 6 10 8 7 6 3 3 3 3 5 4 4 3 4 6 5 5 6 6 6 7 5 5 3 4 5 8 9 7 7 9 5 1 2 5 3 6 5 3 3 8 10 9 10 10 11 13 19 28 31 32 35 38 40 41
20 20 18 15 13 9 4 1 3 3 3 1 3 6 7 6 6 6 3 4 2 2 0 1 2 3 4 5 7 5 2 2 3 6 9 6 4 5 4 2 1 1 3 3 2 3 2 1 2 4 4 4 4 5 6 7 5 5 6 6 7 7 7 9 6 4 4 4 3 2 3 2 2 6 7 8 9 9 11 13 16 25 31 33 36 38 40 42
18 19 15 11 10 8 2 1 2 2 1 2 6 7 5 3 4 3 2 4 1 1 0 1 1 3 4 2 4 4 3 4 4 3 7 5 3 3 2 3 5 3 1 5 3 5 1 1 2 5 3 3 5 7 8 8 6 9 10 6 5 7 7 6 6 4 2 2 3 5 1 2 3 3 4 7 9 11 15 17 16 22 30 33 35 38 40 42
17 16 13 8 7 6 1 1 1 1 1 4 5 5 4 3 3 1 3 3 1 1 0 1 0 3 2 1 2 2 2 2 1 3 4 4 3 1 1 2 4 4 1 3 4 4 1 3 5 4 4 4 6 9 8 8 7 10 6 4 4 4 5 4 4 4 1 2 5 6 4 2 4 2 5 6 9 13 16 15 15 23 31 33 35 38 40 41
16 14 10 7 7 6 2 1 1 2 4 4 4 3 4 3 1 3 3 1 1 2 2 2 2 1 1 2 1 1 2 2 1 9 13 14 14 10 4 2 4 3 1 3 1 4 4 6 5 2 2 4 5 6 7 8 10 9 1 1 2 0 2 1 1 2 3 1 7 8 9 6 3 3 5 8 12 16 15 11 13 21 29 33 35 37 40 42
14 11 10 9 8 8 5 2 2 4 5 5 5 5 3 1 2 5 3 1 1 3 4 3 3 1 1 3 1 1 2 2 4 9 10 12 17 19 11 4 6 4 3 5 3 4 6 4 2 3 10 8 3 3 3 4 4 3 0 1 1 3 1 2 4 2 3 4 7 7 8 7 4 5 6 11 16 17 15 13 14 19 26 33 35 37 39 42
12 11 10 9 9 8 7 5 3 3 4 6 7 5 1 2 4 3 1 4 3 2 3 3 2 2 1 3 2 3 3 4 6 8 6 5 8 11 9 4 3 3 3 3 3 4 3 3 3 2 12 16 6 3 6 6 5 4 2 3 2 2 1 1 2 1 4 5 6 5 6 4 6 6 7 13 16 16 15 16 18 22 28 33 35 36 38 40
10 10 10 9 8 8 7 6 5 4 5 8 6 1 3 5 3 2 2 3 1 2 3 2 3 3 3 4 3 4 6 5 4 5 5 5 6 5 6 8 7 3 2 1 2 4 1 2 7 5 7 12 7 3 4 4 5 4 1 4 4 2 2 2 3 1 2 4 5 2 4 2 4 5 8 13 14 18 21 24 27 30 33 36 37 38 38 39
10 10 9 9 8 7 6 6 7 8 10 9 2 3 7 5 1 3 3 2 2 3 3 2 3 4 5 5 3 3 6 5 5 6 5 4 5 5 6 11 12 5 2 3 2 3 1 1 6 5 4 8 6 2 2 4 3 4 3 4 3 4 4 3 3 2 3 3 3 2 1 3 4 4 8 9 10 15 22 26 28 29 32 35 36 36 37 38
11 10 10 10 10 8 8 10 13 14 14 9 6 6 7 3 2 2 3 4 2 3 5 4 5 6 6 6 5 5 5 3 4 8 8 5 4 5 5 7 11 7 2 3 2 2 2 2 5 3 2 6 6 5 4 1 3 4 0 3 1 2 3 1 3 5 4 1 1 1 2 4 5 2 8 10 10 9 14 19 21 23 27 29 30 34 38 39
10 11 13 15 15 14 14 17 18 16 14 11 9 6 4 2 2 1 2 4 3 3 4 5 7 6 5 5 6 8 6 4 2 4 6 5 5 6 6 4 8 8 4 2 1 3 2 2 5 5 4 8 8 5 6 8 1 3 4 1 5 3 4 1 2 0 4 3 1 2 2 4 3 3 13 17 14 12 10 8 13 19 25 27 31 36 39 40
8 10 13 15 16 17 18 20 18 15 14 12 9 5 2 1 3 2 3 4 3 4 4 4 5 4 3 3 4 8 6 4 4 4 3 3 4 6 6 5 8 9 6 2 2 2 1 3 4 6 3 9 13 5 6 13 6 1 2 4 6 1 3 2 0 2 4 3 3 1 4 3 5 2 11 18 18 17 15 11 10 12 20 27 32 38 41 44
7 9 12 14 13 15 18 20 16 12 14 11 7 5 2 3 7 5 5 5 3 5 6 4 2 2 2 2 4 8 6 3 4 4 3 2 3 4 5 4 7 11 11 6 3 1 2 2 4 6 3 6 12 8 3 10 12 4 1 5 4 3 1 2 1 1 1 3 2 2 3 4 5 4 10 16 16 17 16 13 13 10 12 23 32 38 43 45
7 7 12 15 14 13 16 19 15 12 12 7 4 4 1 3 10 14 12 8 5 5 5 3 2 3 3 2 3 7 7 5 3 3 3 3 1 3 6 4 5 11 13 10 4 2 2 2 3 6 7 4 5 7 3 7 10 6 4 6 5 3 1 2 0 2 1 3 2 2 3 3 2 4 9 12 13 15 17 17 14 13 16 22 30 35 40 44
8 6 10 15 14 13 15 15 13 11 8 4 3 3 2 2 8 19 22 14 7 6 4 2 3 3 3 4 4 5 6 5 4 4 3 3 1 3 8 6 5 8 10 9 6 2 2 3 2 5 8 5 2 4 3 3 6 6 6 7 7 3 1 0 0 2 1 2 1 1 3 1 4 3 7 9 11 14 18 19 16 19 24 23 29 34 37 42
12 6 10 15 13 12 11 8 8 7 4 3 2 2 3 4 5 14 21 18 12 10 7 4 4 4 3 4 5 3 3 4 5 5 3 4 3 2 7 9 6 6 6 6 6 4 2 2 2 4 5 4 2 4 3 1 2 6 6 6 5 4 3 2 2 3 2 2 0 2 2 4 3 4 7 8 8 12 19 21 18 24 33 27 25 36 37 40
15 6 10 16 12 9 11 8 5 4 3 4 4 5 7 6 5 9 15 15 12 10 10 7 4 5 4 3 3 3 3 4 4 4 3 4 4 1 7 14 11 5 4 3 3 3 2 2 3 2 2 3 5 4 5 4 4 7 7 5 4 4 5 4 1 4 3 2 2 1 1 5 2 5 9 9 8 12 22 26 22 27 37 35 18 32 40 39
14 10 14 18 12 11 15 7 6 5 4 5 8 11 12 9 7 9 10 11 8 6 8 6 4 6 5 4 4 3 4 4 4 4 3 2 3 3 9 15 12 6 4 2 3 5 3 2 3 3 3 4 5 4 5 7 6 5 5 5 5 4 3 1 2 2 2 2 3 3 1 4 3 8 12 13 13 14 23 32 30 30 37 44 31 15 37 39
12 14 19 20 15 15 13 4 2 4 4 6 8 9 11 11 11 10 7 8 7 3 3 4 5 5 4 4 5 4 3 4 4 4 3 1 2 7 12 16 12 7 5 3 3 5 3 1 3 3 3 5 6 5 5 6 6 3 3 6 5 5 6 4 1 1 1 1 4 2 2 5 6 11 12 14 16 14 19 31 35 35 37 43 43 24 7 22
7 10 16 21 21 20 13 3 4 5 3 6 7 6 6 8 12 14 10 9 11 7 4 3 4 6 4 4 6 6 6 5 2 2 3 1 2 6 11 14 13 10 8 8 7 4 2 2 2 4 3 1 1 1 3 4 5 3 4 7 7 6 7 4 3 4 1 1 4 1 3 7 11 13 13 12 15 14 17 27 34 40 43 42 41 40 31 16
5 5 7 14 20 22 16 10 9 6 2 4 5 5 5 3 8 15 14 10 12 12 8 5 4 6 6 6 6 6 7 6 3 2 2 1 2 3 7 12 14 12 9 11 11 4 3 3 2 5 5 3 4 4 4 3 3 4 7 9 7 6 6 4 3 2 1 2 5 3 4 6 14 15 14 13 13 12 15 21 25 34 44 43 37 37 38 36
6 3 3 5 9 13 15 15 13 7 3 4 3 3 5 3 4 9 11 8 10 10 8 7 6 4 4 4 4 4 5 4 4 3 1 1 2 2 6 8 11 12 10 9 9 4 4 3 2 5 3 4 5 5 4 2 2 4 7 8 8 7 6 4 0 2 2 3 5 6 3 6 11 12 12 12 13 11 13 18 19 24 36 39 38 40 41 40
6 3 4 4 2 3 5 8 10 10 7 6 4 2 4 5 4 5 5 6 10 10 6 5 7 5 4 4 4 2 3 3 4 3 1 2 2 3 5 4 6 11 10 8 7 5 4 1 0 3 1 3 3 3 2 1 2 3 4 7 8 8 7 4 3 5 2 1 5 8 8 8 8 8 8 10 12 12 13 17 19 24 33 38 41 42 42 41
8 6 8 8 5 3 4 5 10 13 8 5 5 3 3 5 5 3 3 3 6 7 5 4 4 5 5 5 4 3 2 2 2 2 1 1 1 1 3 3 3 9 9 5 5 4 3 1 0 3 2 2 2 3 3 4 3 4 5 6 7 7 8 6 5 6 5 5 8 9 11 9 5 4 5 9 12 13 16 20 23 27 31 35 38 39 39 41
9 7 7 9 8 7 8 8 8 8 6 4 4 3 2 4 4 3 4 4 2 3 4 5 2 3 5 6 6 3 2 5 4 1 2 1 1 0 1 1 1 6 7 2 2 3 3 1 1 4 4 4 4 4 4 4 3 5 5 6 6 6 6 5 4 4 4 5 6 8 9 7 4 7 9 11 14 16 19 22 25 26 28 31 34 36 39 41
11 9 7 8 6 6 7 6 4 4 4 4 2 1 2 3 3 2 3 5 4 2 2 4 5 4 5 6 6 2 2 2 1 3 2 0 1 1 1 1 2 3 4 1 1 2 3 1 2 5 3 4 4 6 7 6 6 5 5 6 5 3 3 3 4 5 4 4 6 6 5 4 6 10 12 11 14 17 18 19 21 23 27 29 31 33 36 37
9 9 9 9 5 6 5 3 4 4 2 2 1 1 2 3 4 4 3 5 7 8 5 6 8 5 4 5 4 4 5 4 4 6 5 4 5 4 5 5 3 1 1 1 1 1 3 3 1 3 3 3 5 4 5 6 6 5 4 2 1 2 4 5 5 5 4 2 3 4 3 3 7 10 10 9 10 13 14 16 20 22 25 27 28 29 32 33
Wind_Direction
350 352 351 351 352 352 351 350 351 352 352 352 351 350 345 340 335 331 328 322 318 316 314 312 308 311 313 317 320 318 316 311 306 291 265 228 208 203 195 190 181 184 185 181 184 183 178 172 170 170 173 182 196 210 209 218 222 207 204 182 231 228 211 209 171 156 142 152 153 170 188 146 138 167 147 139 127 137 145 156 163 153 154 161 164 161 157 156
348 350 349 349 350 350 351 349 349 349 349 350 349 348 343 339 333 330 329 325 320 319 316 308 304 309 312 318 320 318 321 319 317 324 281 199 199 196 190 185 177 180 188 189 190 187 182 176 170 166 170 177 192 207 210 216 209 204 182 165 232 215 221 197 146 143 144 149 145 162 180 151 151 158 150 144 133 137 129 139 141 126 138 152 158 158 156 158
347 347 347 348 348 349 349 348 347 346 346 347 347 345 341 336 331 330 330 327 323 320 316 304 302 308 311 317 319 319 330 347 80 71 71 122 180 189 189 186 179 177 187 197 197 192 185 177 172 168 170 182 193 199 211 213 199 208 210 211 244 220 261 148 149 157 154 151 149 154 154 147 160 160 155 152 137 145 147 148 141 135 143 149 155 158 158 164
346 345 345 346 346 346 347 347 345 344 344 343 343 342 338 333 329 329 329 327 324 322 314 302 301 307 309 314 318 321 347 90 121 88 71 81 129 175 188 188 186 176 176 193 197 188 179 173 173 171 173 197 214 212 229 227 204 197 201 223 258 199 216 165 162 162 155 153 151 145 138 142 162 164 160 151 139 166 177 164 156 151 152 153 156 161 163 168
344 344 343 344 344 343 344 345 344 343 342 340 340 339 336 331 328 327 328 326 325 323 312 302 304 306 308 312 317 321 63 98 141 107 73 61 83 150 184 190 193 180 171 184 186 176 169 166 170 174 181 210 218 215 235 232 225 225 220 233 257 236 89 171 168 159 152 149 145 141 140 145 156 161 167 162 157 189 177 168 165 161 160 159 160 163 166 170
342 343 342 344 342 341 342 342 342 340 339 338 336 336 333 329 326 326 327 325 323 323 312 302 302 304 309 311 318 297 131 111 152 116 73 58 71 134 177 193 199 189 180 181 181 176 167 163 169 180 190 216 213 212 242 236 225 240 251 241 247 242 204 162 161 158 152 144 144 149 149 147 147 158 175 175 183 182 170 165 170 168 165 162 161 164 167 171
343 343 343 343 340 340 341 340 339 338 337 335 333 332 330 326 323 323 324 323 321 322 312 300 298 302 311 308 314 203 201 129 137 111 74 72 77 129 171 191 198 195 190 185 183 179 172 169 175 183 188 225 221 224 249 247 229 230 259 262 256 245 214 174 161 162 159 151 153 152 147 149 153 158 174 183 192 174 167 165 172 169 165 163 163 167 169 173
345 344 344 343 340 339 339 339 337 335 334 332 331 329 327 323 320 320 321 320 319 320 312 298 291 299 313 302 307 234 205 140 125 102 82 73 63 125 181 190 194 198 195 190 187 181 179 180 181 182 184 235 236 246 256 254 239 226 247 266 266 255 216 180 161 160 160 153 155 149 142 159 170 159 170 185 181 174 171 164 168 166 163 165 166 169 172 174
347 347 346 344 341 338 337 336 334 333 331 330 328 326 324 319 316 317 316 317 316 317 315 301 290 296 307 287 301 181 175 152 131 95 79 56 34 14 202 196 194 197 197 193 190 185 187 188 187 184 181 250 258 272 271 256 232 226 242 257 264 260 202 173 158 157 162 156 153 145 139 161 169 157 170 190 179 170 170 161 164 165 165 167 169 172 174 176
350 350 348 345 340 337 335 334 332 330 328 327 326 324 322 315 312 312 311 313 311 313 313 303 296 294 284 262 245 138 155 153 147 97 359 41 25 357 213 202 197 196 196 194 192 191 193 191 188 189 202 268 269 278 272 242 258 284 272 275 276 254 183 167 158 157 161 161 160 149 137 152 163 162 179 194 181 164 162 161 164 166 168 170 171 175 176 178
352 351 348 344 339 336 333 332 330 328 326 325 324 322 319 310 306 306 306 309 309 317 315 309 309 290 273 237 221 179 146 150 170 290 302 75 52 37 160 195 197 198 196 196 196 194 195 193 186 185 210 267 296 307 293 267 308 313 301 305 296 228 163 159 155 159 159 166 173 146 109 129 158 197 207 185 179 167 164 163 166 168 170 172 174 177 179 180
351 348 345 342 338 334 332 330 328 327 324 323 322 319 314 305 298 298 301 306 313 327 329 329 319 291 296 240 215 172 141 175 177 147 189 120 97 62 67 156 193 203 200 198 199 195 195 197 191 197 231 284 325 318 314 315 314 309 292 306 316 119 148 164 157 165 166 167 173 139 90 139 194 228 199 177 175 169 168 166 167 171 172 174 176 179 181 182
348 346 343 342 338 335 332 330 329 326 324 323 321 317 311 298 290 290 293 308 322 338 356 358 324 319 317 239 181 136 156 197 198 186 202 180 149 100 71 81 150 203 209 204 200 198 198 201 199 217 255 291 311 290 304 307 302 296 277 286 13 74 161 184 161 166 170 167 170 150 89 233 220 229 193 175 175 168 169 169 169 173 174 175 177 180 182 184
346 345 344 343 341 337 333 332 331 326 325 324 320 318 308 289 284 284 286 317 336 349 340 322 300 309 296 208 154 145 168 185 199 151 148 177 190 202 174 119 82 173 208 207 203 203 203 206 213 238 272 278 277 289 307 305 296 294 284 329 112 132 205 190 164 166 161 170 177 165 354 222 219 225 193 176 175 169 170 172 172 173 176 177 177 179 183 186
344 344 345 345 342 339 335 334 331 327 328 327 324 325 306 287 285 282 279 316 333 227 269 289 291 306 297 237 164 165 166 176 186 134 134 156 172 199 189 150 106 112 186 200 200 205 207 210 222 248 275 279 274 282 317 330 331 346 296 317 336 168 222 180 170 178 158 166 187 188 328 232 221 209 190 176 172 170 172 174 174 175 178 180 179 179 183 187
343 344 345 344 343 340 337 335 330 328 336 338 333 332 315 299 293 290 285 309 332 229 260 287 296 307 300 255 172 174 186 188 176 154 165 169 165 190 188 162 154 128 156 180 181 189 204 213 234 251 262 274 262 236 331 358 340 354 78 274 290 9 346 154 177 194 165 151 191 209 223 239 232 196 183 174 173 172 174 176 177 178 180 182 183 181 182 186
343 343 344 345 344 341 338 335 329 333 354 353 338 332 335 329 309 299 284 336 344 261 270 282 286 296 263 180 157 175 218 211 196 188 186 185 187 194 217 209 182 150 138 154 166 180 200 214 238 253 253 251 180 131 27 327 303 323 14 293 270 64 114 155 177 198 171 152 192 213 221 241 235 185 174 174 176 174 176 178 179 181 182 184 186 185 183 185
342 342 343 345 343 341 340 334 330 341 10 5 351 332 342 353 347 107 117 32 17 176 282 272 256 306 216 185 153 323 272 198 188 178 182 189 190 194 211 214 188 167 153 151 175 195 207 221 227 261 291 247 148 106 141 223 198 197 20 7 311 347 95 174 187 179 171 184 202 208 222 242 244 175 174 178 179 179 180 181 181 183 184 185 187 188 188 187
340 340 341 344 344 341 340 334 329 344 10 16 11 347 356 13 38 127 44 341 297 188 295 236 192 191 249 265 306 340 336 208 191 171 185 180 171 184 186 188 198 176 156 138 187 195 192 213 245 237 267 227 190 141 171 211 174 149 319 277 272 307 296 207 247 194 172 191 215 206 215 223 208 181 178 180 182 185 185 184 185 186 186 187 187 190 192 192
339 339 339 344 344 340 341 333 323 345 8 18 26 45 48 13 13 28 342 328 279 250 266 250 246 267 279 290 300 351 349 242 219 203 191 166 163 173 165 160 169 160 151 141 179 190 174 196 239 223 224 216 218 182 189 226 228 255 285 266 263 282 272 221 262 231 177 189 220 211 216 218 202 189 180 179 182 188 189 187 190 190 189 189 188 190 194 196
337 337 338 342 344 341 340 331 312 344 10 17 30 54 53 19 16 343 341 330 294 277 264 260 263 266 274 281 300 346 338 289 208 187 194 182 166 167 171 156 127 130 192 169 142 136 163 209 239 228 224 219 227 200 196 244 263 272 262 278 282 255 262 251 250 236 186 194 229 218 222 227 209 195 181 177 180 190 191 188 190 192 191 191 190 191 194 198
334 334 334 338 343 342 339 329 290 327 19 35 52 64 60 31 16 342 338 315 298 294 257 260 257 253 264 273 303 324 293 282 86 174 193 184 172 172 179 157 126 172 213 144 98 62 185 238 247 239 232 216 250 237 209 239 254 268 260 282 286 239 286 288 273 251 180 192 232 210 216 232 215 197 186 183 187 194 193 190 190 190 190 193 193 192 194 196
330 329 329 333 341 343 339 324 269 265 36 59 72 73 57 25 16 342 327 293 290 294 254 247 245 247 265 277 285 263 234 235 150 177 186 181 177 171 167 151 134 170 146 128 141 136 208 250 238 238 237 209 253 260 234 253 262 259 249 265 268 206 94 292 294 338 154 201 225 184 200 223 187 195 199 195 196 196 194 194 193 192 192 194 195 195 194 195
329 326 324 327 338 344 338 317 249 192 77 77 75 72 48 15 21 351 330 292 281 299 249 223 234 248 266 262 214 201 192 180 180 183 186 187 171 152 163 161 124 149 185 165 158 169 225 243 231 221 214 200 240 270 254 242 259 257 231 232 256 239 142 215 270 347 5 243 234 120 129 254 179 191 205 199 201 201 194 194 195 196 197 196 197 197 197 197
328 323 320 323 335 344 339 298 216 195 175 120 78 62 26 348 354 349 341 339 286 304 153 177 213 228 246 207 183 191 175 174 198 180 186 187 164 145 164 169 141 197 227 171 153 189 241 246 223 192 209 197 214 256 238 196 230 277 238 217 235 244 218 231 261 342 351 289 230 142 158 271 204 189 198 191 198 202 194 193 194 197 199 198 197 198 200 201
328 320 319 323 331 345 347 250 207 200 193 176 113 348 317 296 302 328 346 51 352 305 62 159 201 204 203 182 177 168 80 129 160 168 180 180 164 146 143 171 147 210 213 166 154 201 248 245 189 187 219 195 202 243 227 175 191 272 240 203 214 223 232 248 255 198 265 283 242 158 171 259 241 199 199 187 192 199 197 200 198 197 199 199 198 199 200 201
325 317 322 327 328 343 5 219 213 199 186 212 291 306 302 279 277 299 342 52 15 292 306 178 180 172 172 163 168 152 108 172 136 153 175 163 160 160 162 212 145 190 207 110 110 223 258 314 176 188 207 186 202 243 223 172 167 252 237 180 182 197 219 240 225 188 222 251 310 6 123 130 255 217 184 170 185 198 206 210 204 200 200 201 201 200 200 201
327 321 330 333 327 341 357 216 213 197 191 288 295 300 297 270 278 295 77 74 349 291 341 263 177 168 174 156 174 156 130 167 133 154 183 147 111 140 143 204 175 191 229 109 149 256 280 76 171 159 159 187 202 231 222 170 176 248 242 200 176 183 203 217 195 198 224 180 276 303 119 125 277 250 131 155 188 204 214 213 207 203 202 201 201 201 201 201
338 335 345 345 339 355 360 201 120 124 263 289 304 303 278 274 305 17 89 82 2 329 287 272 146 184 202 115 177 156 107 183 142 83 120 99 51 54 149 198 165 179 271 109 185 254 275 225 217 147 150 206 216 239 222 167 199 244 242 210 195 182 206 208 180 193 131 126 227 246 195 165 276 243 137 166 204 214 217 213 207 207 205 203 202 201 202 202
350 354 13 21 17 26 53 203 332 325 306 313 335 316 279 283 347 71 64 72 75 318 288 278 280 231 181 71 51 359 103 202 93 69 64 59 49 41 65 88 65 102 15 13 226 248 292 274 254 89 65 236 238 252 224 196 221 239 260 229 238 274 200 194 62 121 115 214 242 226 199 186 263 256 180 190 210 213 215 211 206 210 209 206 204 202 201 202
5 22 43 44 40 36 27 356 304 325 341 350 342 314 295 310 66 88 75 350 10 336 328 298 276 297 94 109 78 360 71 21 34 63 51 44 44 37 37 33 19 37 21 2 334 303 338 345 291 38 34 20 327 310 298 271 251 235 125 135 240 317 9 54 9 64 147 249 258 217 187 180 225 255 214 211 218 215 211 207 202 206 209 208 206 203 202 202
30 40 43 38 36 28 20 21 10 8 2 341 327 314 298 58 35 65 356 332 348 317 316 285 270 335 50 97 66 25 53 39 46 70 59 40 48 42 44 31 358 37 29 348 336 349 14 17 319 341 37 33 20 349 343 340 20 47 75 108 126 302 353 113 287 204 182 248 256 179 141 165 232 249 230 223 226 223 217 213 206 204 206 207 206 204 203 203
32 27 24 23 22 22 33 43 30 18 351 329 315 298 96 80 40 18 341 341 323 272 298 290 303 345 66 68 35 31 50 38 33 59 53 51 57 49 45 26 18 72 102 35 13 11 349 325 352 359 13 14 23 48 357 324 357 7 126 125 142 164 119 210 243 256 194 244 261 188 135 192 259 270 240 226 227 224 221 218 212 207 204 204 205 204 204 205
18 13 12 14 14 24 51 46 22 9 355 348 346 95 70 72 24 4 2 309 250 297 321 304 328 11 52 46 14 46 59 30 21 45 38 45 45 16 14 15 12 23 81 60 49 30 105 259 357 12 331 345 18 46 251 235 290 298 207 144 140 155 145 199 209 177 201 237 294 312 187 185 199 250 251 250 254 237 229 225 217 211 207 204 202 202 203 205
15 17 24 34 38 48 50 27 16 9 4 25 80 75 63 65 300 351 348 300 290 328 335 357 31 42 32 15 1 16 60 53 25 55 54 55 54 5 353 4 2 4 41 52 25 8 86 217 295 325 350 6 4 316 301 199 228 282 295 99 42 161 155 207 197 173 168 137 6 272 215 211 208 279 338 333 314 279 251 237 219 208 205 201 198 200 203 205
25 39 50 53 47 40 29 16 13 13 19 53 75 56 68 87 306 323 317 314 318 315 331 13 36 43 14 2 357 353 28 69 33 55 57 55 58 15 357 351 356 8 33 69 61 10 32 259 303 341 3 2 348 310 30 51 228 269 35 2 267 230 159 175 253 209 96 115 258 232 221 291 291 9 2 357 352 345 328 276 234 211 197 192 195 200 203 204
34 49 54 49 37 25 17 14 16 24 38 63 74 55 81 29 337 304 305 325 332 343 33 49 25 38 24 12 5 341 356 45 33 40 38 23 33 7 347 339 359 10 7 31 111 54 11 258 322 13 349 341 351 352 67 43 20 77 56 299 287 281 128 124 205 1 62 134 267 231 150 350 360 8 348 355 357 348 348 341 302 246 202 192 197 202 204 205
25 44 45 34 19 9 8 9 13 35 53 66 74 63 66 10 10 359 337 347 8 19 51 68 25 43 54 41 17 355 2 25 12 38 50 29 30 2 345 337 354 1 360 19 81 74 22 276 303 7 341 327 4 20 38 11 9 38 211 304 352 76 51 6 105 141 112 154 262 281 125 52 14 347 342 349 346 337 339 343 335 307 241 212 204 202 204 206
24 48 41 23 5 356 360 1 8 45 62 64 73 57 32 18 21 21 23 28 38 41 47 47 47 50 39 62 34 12 34 46 23 55 61 38 35 356 0 353 335 350 5 34 63 264 32 57 277 331 342 330 16 28 6 337 348 11 23 2 19 101 140 323 149 149 156 157 208 274 48 49 308 337 347 337 333 339 342 338 336 325 292 247 220 209 205 205
44 60 34 13 358 349 349 356 15 51 67 69 86 54 17 24 22 28 39 49 46 47 57 20 36 53 28 47 54 27 44 48 38 68 52 27 70 4 6 4 324 337 6 39 50 360 33 58 285 308 343 4 27 9 356 318 337 8 34 27 6 347 356 287 358 37 76 127 176 129 65 260 243 356 350 331 341 355 353 344 332 325 315 280 237 219 209 206
54 54 18 10 1 354 1 13 27 49 65 55 63 42 29 43 22 24 39 54 59 56 69 67 53 60 34 42 50 26 50 54 37 59 56 25 55 27 0 2 344 335 0 27 30 14 20 53 7 331 353 17 309 302 324 305 34 56 54 32 5 350 20 54 358 345 33 75 43 126 126 244 239 26 347 337 2 7 360 349 334 331 331 314 254 224 214 212
60 49 18 20 17 36 65 60 20 36 67 60 50 41 39 37 24 20 30 47 55 44 51 60 52 47 33 38 51 30 63 65 24 49 82 41 52 23 353 8 10 7 32 37 337 337 21 81 48 358 317 295 274 297 31 67 99 78 62 34 6 10 42 62 329 310 337 4 340 53 169 225 217 19 352 351 4 12 12 3 349 342 343 343 299 229 216 214
54 45 37 36 38 76 87 64 7 31 49 57 61 52 48 39 21 24 27 35 38 24 37 42 33 49 40 25 43 39 55 58 27 50 91 50 27 351 8 26 27 17 40 44 320 336 8 55 37 348 308 318 299 301 36 57 67 55 30 17 9 357 8 360 224 249 318 358 17 29 291 243 300 352 350 357 354 2 20 17 7 357 353 0 360 254 219 215
52 48 45 44 51 75 86 77 32 57 34 45 56 45 49 48 33 31 29 26 27 27 50 27 24 54 48 32 52 42 46 75 49 35 59 92 3 360 25 43 43 34 46 46 337 342 359 46 54 33 3 359 352 335 347 20 41 39 327 346 353 339 349 344 309 44 47 50 55 74 253 272 310 335 341 360 0 354 13 19 18 12 1 4 15 15 254 221
51 48 41 44 58 69 74 95 102 88 63 56 54 28 34 41 36 41 47 37 34 47 75 43 46 66 50 46 58 36 36 76 88 23 28 32 331 355 27 49 50 46 49 39 24 22 54 75 86 90 97 109 341 321 307 326 352 348 322 341 342 341 357 1 17 28 39 353 15 141 217 287 309 327 338 359 9 356 359 12 20 21 13 4 12 23 28 30
54 46 21 34 54 62 62 67 76 79 80 79 65 31 25 16 21 37 47 44 36 45 57 47 59 70 42 40 62 38 31 49 68 88 70 5 295 337 27 54 54 47 47 38 27 37 91 57 84 123 135 170 186 211 257 299 327 320 327 340 339 338 357 21 46 33 228 332 340 228 195 311 314 326 339 352 5 359 356 4 12 23 20 10 6 16 27 35
65 46 337 11 39 47 48 51 57 62 68 87 87 20 26 26 1 26 41 45 39 46 54 30 23 54 50 50 74 41 17 30 44 66 78 338 273 320 24 58 55 41 43 41 29 51 95 41 53 119 151 201 192 219 258 267 266 302 320 330 332 329 340 6 43 248 271 1 317 262 260 320 306 315 337 349 357 358 355 354 0 20 22 14 10 15 22 28
80 73 58 66 43 12 32 41 52 62 61 61 69 32 31 42 32 24 29 40 41 42 55 34 19 39 74 82 101 63 16 32 30 17 4 2 329 342 11 29 43 37 38 36 32 66 105 89 141 107 128 230 218 247 282 343 295 308 315 312 321 326 324 324 266 255 275 253 257 274 293 297 291 308 342 3 1 358 358 355 3 21 23 18 16 15 16 19
85 86 71 79 84 54 61 64 65 67 55 40 49 35 38 50 36 1 348 34 37 25 50 78 15 24 63 75 99 92 50 79 42 328 234 73 29 64 16 348 20 31 30 31 28 53 98 94 15 82 55 322 320 330 14 37 344 315 308 295 301 306 299 295 274 262 262 247 247 270 285 279 276 311 357 24 16 9 15 16 19 24 23 21 19 15 12 13
77 82 78 86 78 50 50 54 64 70 45 30 49 19 26 55 30 353 13 52 72 351 36 83 56 39 68 68 81 100 164 162 157 263 213 125 10 75 62 259 275 7 11 31 22 30 75 16 15 72 42 324 333 357 3 7 327 296 288 276 280 300 305 306 301 286 283 274 265 274 283 283 314 350 8 29 30 25 26 24 23 23 21 21 20 17 13 10
68 73 87 99 70 25 36 40 50 80 43 21 44 352 356 24 10 357 19 38 76 77 48 124 114 68 53 53 57 28 285 180 180 309 291 191 335 260 227 240 219 356 3 7 359 41 94 30 4 69 53 301 319 359 346 336 330 304 274 254 254 289 321 320 310 293 285 288 285 287 293 300 331 349 5 24 34 36 31 24 22 22 22 23 19 16 14 8
61 67 87 103 72 11 26 31 31 69 70 357 40 46 30 21 22 62 58 15 34 41 43 132 124 81 45 46 33 336 335 345 329 331 334 327 325 301 281 288 274 226 206 178 109 122 131 111 89 96 84 285 294 339 345 346 347 316 268 203 149 333 323 320 317 304 309 335 304 287 302 332 334 349 2 12 30 39 34 28 25 20 21 24 20 16 14 9